Flag for Bermuda Weather past 2 weeks in Hamilton, Bermuda

Now
59 °F

Passing clouds.


Feels Like: 57 °F
Forecast: 59 / 68 °F
Wind: 10 mph from Southeast

Location: Bermuda

Current Time: Mar 4, 2015 at 1:33:13 AM

Latest Report: Mar 4, 2015 at 12:55 AM


Visibility: N/A

Pressure: 30.30 "Hg

Humidity: 68%

Dew point: 48 °F

Location of HamiltonLocation

Historic Weather in Hamilton — Graph

°F

Hamilton temperature yesterday

Maximum temperature yesterday: 66 °F (at 12:55 AM)
Minimum temperature yesterday: 57 °F (at 11:55 PM)
Average temperature yesterday: 61 °F

Past Weeks' High & Low Weather Summary

 TemperatureHumidityPressure
High73 °F (Feb 27, 10:55 AM)94% (Feb 18, 10:55 PM)30.51 "Hg (Feb 18, 10:55 PM)
Low55 °F (Feb 20, 7:55 PM)51% (Feb 21, 1:55 PM)29.71 "Hg (Feb 25, 5:55 AM)
Average65 °F78%30.15 "Hg
* Reported Feb 16 11:55 PM — Mar 3 11:55 PM, Hamilton, Weather by CustomWeather, © 2015

Note: Actual official high and low records may vary slightly from our data, if they occured in-between our weather recording intervals... More about our weather records

Advertising

Hamilton weather history for previous 24 hours

 ConditionsComfort  
Time TempWeatherWind HumidityBarometerVisibility
11:55 PM
Tue, Mar 3
57 °FPassing clouds.9 mph67%30.33 "HgN/A
10:55 PM59 °FPassing clouds.9 mph59%30.33 "HgN/A
9:55 PM59 °FPassing clouds.9 mph55%30.33 "HgN/A
8:55 PM59 °FPartly cloudy.7 mph59%30.33 "HgN/A
7:55 PM59 °FPassing clouds.12 mph59%30.36 "HgN/A
6:55 PM59 °FPassing clouds.12 mph55%30.30 "HgN/A
5:55 PM59 °FScattered clouds.10 mph55%30.30 "HgN/A
4:55 PM61 °FScattered clouds.12 mph52%30.27 "HgN/A
3:55 PM61 °FBroken clouds.14 mph59%30.27 "HgN/A
2:55 PM61 °FPartly sunny.15 mph52%30.27 "HgN/A
1:55 PM61 °FBroken clouds.17 mph59%30.27 "HgN/A
12:55 PM63 °FBroken clouds.16 mph56%30.27 "HgN/A
11:55 AM63 °FBroken clouds.16 mph52%30.30 "HgN/A
10:55 AM61 °FPartly sunny.18 mph59%30.27 "HgN/A
8:55 AM61 °FMostly cloudy.20 mph68%30.24 "HgN/A
7:55 AM61 °FMostly cloudy.18 mph72%30.18 "HgN/A
6:55 AM61 °FScattered showers. Mostly cloudy.21 mph83%30.15 "HgN/A
5:55 AM63 °FMostly cloudy.18 mph83%30.12 "HgN/A
4:55 AM63 °FMostly cloudy.17 mph88%30.09 "HgN/A
3:55 AM64 °FSprinkles. Mostly cloudy.17 mph88%30.07 "Hg4 mi
2:55 AM64 °FPartly cloudy.16 mph88%30.07 "HgN/A
1:55 AM66 °FPassing clouds.14 mph88%30.07 "HgN/A
Weather by CustomWeather, © 2015

See weather overviewHow to use our weather pages